Home   Weather   Helsinki   Past weeks

Flag for Finland Past Weather in Helsinki, Finland — Yesterday and Last 2 Weeks

Now
43 °F

Scattered showers. Partly sunny.


Feels Like: 41 °F
Forecast: 33 / 42 °F
Wind: 3 mph from North

Location: Helsinki-Vantaa

Current Time: Apr 23, 2017 at 4:56:25 pm

Latest Report: Apr 23, 2017 at 4:20 pm


Visibility: N/A

Pressure: 29.59 "Hg

Humidity: 42%

Dew Point: 21 °F

Location of HelsinkiLocation

Past Weather in Helsinki — Graph

°F

Helsinki Temperature Yesterday

Maximum temperature yesterday: 45 °F (at 1:50 pm)
Minimum temperature yesterday: 30 °F (at 5:50 am)
Average temperature yesterday: 38 °F

High & Low Weather Summary for the Past Weeks

 TemperatureHumidityPressure
High54 °F (Apr 10, 2:20 pm)100% (Apr 10, 4:50 am)30.51 "Hg (Apr 10, 4:50 am)
Low18 °F (Apr 19, 5:50 am)30% (Apr 17, 5:20 pm)29.18 "Hg (Apr 22, 4:20 am)
Average35 °F67%29.77 "Hg
* Reported Apr 8 2:20 pm — Apr 23 2:50 pm, Helsinki, Weather by CustomWeather, © 2017

Note: Actual official high and low records may vary slightly from our data, if they occured in-between our weather recording intervals... More about our weather records

Advertising

Helsinki Weather History for the Previous 24 Hours

Scroll right to see more
 ConditionsComfort  
Time TempWeatherWind HumidityBarometerVisibility
2:50 pm
Sun, Apr 23
45 °FScattered showers. Broken clouds.7 mph39%29.56 "HgN/A
2:20 pm43 °FScattered showers. Broken clouds.6 mph42%29.59 "HgN/A
1:50 pm41 °FLight mixture of precip. Broken clouds.9 mph57%29.56 "HgN/A
1:20 pm39 °FScattered showers. Broken clouds.10 mph61%29.56 "HgN/A
12:50 pm39 °FScattered showers. Broken clouds.14 mph65%29.56 "HgN/A
12:20 pm41 °FScattered showers. Broken clouds.9 mph57%29.56 "HgN/A
11:50 am41 °FScattered showers. Broken clouds.10 mph66%29.56 "HgN/A
11:20 am39 °FPartly sunny.12 mph75%29.53 "HgN/A
10:50 am37 °FPartly sunny.9 mph81%29.53 "HgN/A
10:20 am36 °FPartly sunny.9 mph87%29.53 "HgN/A
9:50 am34 °FLight snow. Broken clouds.10 mph93%29.53 "Hg2 mi
9:20 am32 °FSnow. Broken clouds.10 mph100%29.53 "Hg1 mi
8:50 am32 °FSnow. Broken clouds.14 mph100%29.50 "Hg1 mi
8:20 am32 °FSnow. Partly sunny.15 mph100%29.50 "Hg1 mi
7:50 am32 °FSnow. Partly sunny.14 mph93%29.50 "Hg1 mi
7:20 am34 °FLight snow. Broken clouds.14 mph93%29.47 "Hg1 mi
6:50 am34 °FLight rain. Partly sunny.12 mph87%29.47 "Hg2 mi
6:20 am34 °FSnow flurries. Broken clouds.13 mph87%29.47 "Hg4 mi
5:50 am34 °FLight rain. Partly sunny.12 mph93%29.45 "Hg4 mi
5:20 am34 °FLight rain. Passing clouds.13 mph93%29.45 "Hg4 mi
4:50 am34 °FLight rain. Passing clouds.14 mph93%29.45 "HgN/A
4:20 am34 °FLight rain. Passing clouds.12 mph93%29.45 "HgN/A
3:50 am36 °FPassing clouds.12 mph87%29.45 "HgN/A
3:20 am36 °FSprinkles. Passing clouds.14 mph87%29.45 "HgN/A
2:50 am36 °FSprinkles. Passing clouds.14 mph87%29.45 "HgN/A
2:20 am36 °FPartly cloudy.14 mph87%29.45 "HgN/A
1:50 am36 °FPassing clouds.12 mph87%29.42 "HgN/A
1:20 am36 °FPassing clouds.13 mph87%29.42 "HgN/A
12:50 am36 °FPassing clouds.14 mph87%29.42 "HgN/A
12:20 am36 °FPassing clouds.12 mph87%29.42 "HgN/A
11:50 pm
Sat, Apr 22
36 °FPassing clouds.13 mph87%29.39 "HgN/A
11:20 pm36 °FScattered showers. Passing clouds.15 mph87%29.39 "HgN/A
10:50 pm37 °FScattered showers. Passing clouds.15 mph81%29.39 "HgN/A
10:20 pm37 °FScattered showers. Passing clouds.14 mph81%29.39 "HgN/A
9:50 pm37 °FScattered showers. Passing clouds.12 mph75%29.36 "HgN/A
9:20 pm37 °FScattered showers. Passing clouds.8 mph75%29.36 "HgN/A
8:50 pm39 °FLight mixture of precip. Scattered clouds.10 mph65%29.36 "HgN/A
8:20 pm41 °FScattered showers. Passing clouds.8 mph57%29.33 "HgN/A
7:50 pm41 °FScattered clouds.7 mph61%29.33 "HgN/A
7:20 pm41 °FScattered showers. Scattered clouds.7 mph61%29.30 "HgN/A
6:50 pm39 °FScattered showers. Scattered clouds.6 mph70%29.30 "HgN/A
6:20 pm41 °FScattered showers. Partly sunny.9 mph66%29.30 "HgN/A
5:50 pm41 °FLight mixture of precip. Partly sunny.8 mph70%29.30 "HgN/A
5:20 pm41 °FScattered showers. Partly sunny.10 mph70%29.27 "HgN/A
4:50 pm41 °FScattered showers. Partly sunny.9 mph81%29.27 "HgN/A
4:20 pm37 °FScattered showers. Partly sunny.10 mph81%29.24 "HgN/A
Weather by CustomWeather, © 2017

See weather overviewHow to use our weather pages